Weather History for Szeged, Hungary

Change the Weather History Date:

Friday, February 22, 2013

  Actual Average (LRAR) Record (LRAR)
Temperature  
Mean Temperature 32 °F -  
Max Temperature 35 °F 49 °F 64 °F (1998)
Min Temperature 30 °F 32 °F 10 °F (2009)
Degree Days  
Heating Degree Days 32    
Moisture  
Dew Point 32 °F    
Average Humidity 100    
Maximum Humidity 100    
Minimum Humidity 93    
Precipitation  
Precipitation 0.08 in 0.04 in - ()
Sea Level Pressure  
Sea Level Pressure 29.78 in    
Wind  
Wind Speed 6 mph ()    
Max Wind Speed 12 mph    
Max Gust Speed -    
Visibility 1.5 miles    
Events Rain , Snow    
Averages and records for this station are not official NWS values.
T = Trace of Precipitation, MM = Missing Value Source: Averaged Metar Reports

Daily Weather History Graph

Daily Weather History Graph

Search for Another Location

Airport:

Trip Planner

Search our weather history database for the weather conditions in past years. The results will help you decide how hot, cold, wet, or windy it might be!

Date:

Astronomy

Feb. 22, 2013 Rise Set
Actual Time 6:31 AM CET 5:15 PM CET
Civil Twilight 6:00 AM CET 5:46 PM CET
Nautical Twilight 5:25 AM CET 6:21 PM CET
Astronomical Twilight 4:51 AM CET 6:55 PM CET
Moon 2:02 PM CET (2/22) 4:12 AM CET (2/22)
Length of Visible Light 11h 45m
Length of Day
10h 44m
Waxing Gibbous, 88% of the Moon is Illuminated
Feb 22
Waxing Gibbous
Feb 25
Full
Mar 4
Last Quarter
Mar 11
New
Mar 19
First Quarter

Hourly Weather History & Observations

Time (CET) Temp. Windchill Dew Point Humidity Pressure Visibility Wind Dir Wind Speed Gust Speed Precip Events Conditions
12:45 AM 30.2 °F 21.9 °F 30.2 °F 100% 29.89 in 1.9 mi North 9.2 mph - N/A Snow Light Snow
1:00 AM 31 °F - 30 °F 96% 29.89 in 2 mi North 8.9 mph - - Snow Light Snow
1:45 AM 30.2 °F 21.9 °F 30.2 °F 100% 29.86 in 1.9 mi North 9.2 mph - N/A Snow Light Snow
2:45 AM 30.2 °F 20.8 °F 30.2 °F 100% 29.83 in 1.9 mi NNE 11.5 mph - N/A Snow Light Snow
3:45 AM 30.2 °F 21.3 °F 30.2 °F 100% 29.80 in 1.9 mi NNE 10.4 mph - N/A Snow Light Snow
4:45 AM 30.2 °F 23.4 °F 30.2 °F 100% 29.80 in 1.9 mi NNE 6.9 mph - N/A Snow Light Snow
5:15 AM 30.2 °F 23.4 °F 30.2 °F 100% 29.80 in 1.9 mi NNE 6.9 mph - N/A Snow Light Snow
5:45 AM 30.2 °F 24.3 °F 30.2 °F 100% 29.80 in 2.5 mi NNE 5.8 mph - N/A Snow Light Snow
6:15 AM 30.2 °F 24.3 °F 30.2 °F 100% 29.77 in 2.5 mi NNE 5.8 mph - N/A Snow Light Snow
6:45 AM 30.2 °F 23.4 °F 30.2 °F 100% 29.77 in 1.9 mi NNE 6.9 mph - N/A Snow Light Snow
7:00 AM 31 °F - 31 °F 97% 29.79 in 2 mi NNE 6.7 mph - - Snow Light Snow
7:15 AM 32.0 °F 25.6 °F 32.0 °F 100% 29.77 in 1.9 mi NE 6.9 mph - N/A Rain , Snow Light Rain
7:45 AM 32.0 °F 26.4 °F 32.0 °F 100% 29.77 in 1.6 mi NE 5.8 mph - N/A Rain , Snow Light Rain
8:15 AM 32.0 °F 27.5 °F 32.0 °F 100% 29.77 in 1.4 mi NNE 4.6 mph - N/A Rain , Snow Light Rain
8:45 AM 32.0 °F 27.5 °F 32.0 °F 100% 29.77 in 1.6 mi NNE 4.6 mph - N/A   Ice Pellets
9:15 AM 32.0 °F 27.5 °F 32.0 °F 100% 29.77 in 1.6 mi NNE 4.6 mph - N/A Snow Light Snow
9:45 AM 32.0 °F 27.5 °F 32.0 °F 100% 29.77 in 1.2 mi NE 4.6 mph - N/A   Ice Pellets
10:15 AM 33.8 °F 28.6 °F 32.0 °F 93% 29.77 in 1.6 mi NE 5.8 mph - N/A   Ice Pellets
10:45 AM 33.8 °F 29.6 °F 33.8 °F 100% 29.77 in 1.6 mi NNE 4.6 mph - N/A Rain , Snow Light Rain
11:15 AM 33.8 °F - 33.8 °F 100% 29.77 in 1.1 mi NNE 2.3 mph - N/A Rain Light Rain
11:45 AM 33.8 °F 30.8 °F 33.8 °F 100% 29.77 in 1.1 mi NNE 3.5 mph - N/A Rain Light Rain
12:15 PM 33.8 °F 28.6 °F 33.8 °F 100% 29.77 in 0.9 mi NE 5.8 mph - N/A Rain Light Rain
12:45 PM 35.6 °F 30.7 °F 35.6 °F 100% 29.74 in 1.4 mi ENE 5.8 mph - N/A Rain , Snow Light Rain
1:00 PM 35 °F - 35 °F 98% 29.76 in 1 mi ENE 6.7 mph - - Snow Light Snow
1:15 PM 35.6 °F 29.9 °F 35.6 °F 100% 29.74 in 1.6 mi ENE 6.9 mph - N/A Rain Light Rain
1:45 PM 35.6 °F 30.7 °F 35.6 °F 100% 29.74 in 1.7 mi ENE 5.8 mph - N/A Rain Light Rain
2:15 PM 35.6 °F 29.9 °F 35.6 °F 100% 29.74 in 2.5 mi East 6.9 mph - N/A Rain Light Rain
2:45 PM 35.6 °F 29.9 °F 35.6 °F 100% 29.74 in 2.8 mi ESE 6.9 mph - N/A Rain Light Rain
3:15 PM 35.6 °F 29.9 °F 35.6 °F 100% 29.74 in 3.7 mi SE 6.9 mph - N/A Rain Light Rain
3:45 PM 33.8 °F 27.7 °F 33.8 °F 100% 29.74 in 1.2 mi SSW 6.9 mph - N/A   Ice Pellets
4:15 PM 33.8 °F 29.6 °F 33.8 °F 100% 29.77 in 1.2 mi SSE 4.6 mph - N/A   Ice Pellets
4:45 PM 33.8 °F 29.6 °F 33.8 °F 100% 29.74 in 1.2 mi SE 4.6 mph - N/A   Ice Pellets
5:15 PM 33.8 °F 29.6 °F 33.8 °F 100% 29.77 in 1.1 mi SSE 4.6 mph - N/A Rain , Snow Light Rain
5:45 PM 32.0 °F 27.5 °F 32.0 °F 100% 29.77 in 1.0 mi SE 4.6 mph - N/A Rain , Snow Light Rain
6:15 PM 32.0 °F 28.7 °F 32.0 °F 100% 29.77 in 1.0 mi SSE 3.5 mph - N/A   Overcast
6:23 PM 32.0 °F 27.5 °F 32.0 °F 100% 29.80 in 0.8 mi South 4.6 mph - N/A   Overcast
6:45 PM 32.0 °F 28.7 °F 32.0 °F 100% 29.77 in 0.9 mi South 3.5 mph - N/A   Overcast
7:00 PM 33 °F - 32 °F 96% 29.79 in 1 mi South 4.5 mph - -   Light Ice Pellets
7:15 PM 32.0 °F 28.7 °F 32.0 °F 100% 29.77 in 0.9 mi SSE 3.5 mph - N/A   Overcast
7:45 PM 32.0 °F - 32.0 °F 100% 29.80 in 0.7 mi SSE 2.3 mph - N/A   Overcast
8:15 PM 32.0 °F - 32.0 °F 100% 29.77 in 0.7 mi SE 2.3 mph - N/A   Overcast
8:45 PM 32.0 °F 28.7 °F 32.0 °F 100% 29.80 in 0.7 mi ESE 3.5 mph - N/A   Overcast
9:45 PM 32.0 °F - 32.0 °F 100% 29.80 in 1.2 mi East 2.3 mph - N/A   Overcast
10:45 PM 32.0 °F 28.7 °F 32.0 °F 100% 29.77 in 1.6 mi East 3.5 mph - N/A   Overcast
11:45 PM 32.0 °F - 32.0 °F 100% 29.77 in 1.9 mi East 1.2 mph - N/A   Overcast